Regional Weather Roundup
Issued by NWS Upton, NY

Current Version | Previous Version | Graphics & Text | Print | Product List | Glossary Off
Versions: 1 2 3 4 5 6 7 8 9 10 11 12 13 14 15 16 17 18 19 20 21 22 23 24 25 26 27 28 29 30 31 32 33 34 35 36 37 38 39 40 41 42 43 44 45 46 47 48 49 50

894
ASUS41 KOKX 241108
RWROKX

REGIONAL WEATHER ROUNDUP
NATIONAL WEATHER SERVICE NEW YORK NY
700 AM EDT FRI MAR 24 2017

NOTE: "FAIR" INDICATES FEW OR NO CLOUDS BELOW 12,000 FEET WITH NO
SIGNIFICANT WEATHER AND/OR OBSTRUCTIONS TO VISIBILITY.

NYZ071-072-176-178-NJZ106-104-241200-
NEW YORK CITY METRO AREA

CITY           SKY/WX    TMP DP  RH WIND       PRES   REMARKS
Central Park   CLOUDY    37  18  46 SW9       30.49F WCI  30
Wall St Helipt CLOUDY    36  25  64 SW9       30.50S WCI  29
LaGuardia APRT MOCLDY    39  20  46 S10       30.48F WCI  32
Kennedy INTL   MOCLDY    36  28  73 SW15      30.50F WCI  27
Breezy Point     N/A     34 N/A N/A SW9G15      N/A  WCI  26
Newark/Liberty CLOUDY    35  24  64 S13       30.48F WCI  26
Teterboro      CLOUDY    35  22  58 SW8G20    30.47F WCI  29
$$

NYZ177-179-078>081-241200-
LONG ISLAND NEW YORK

CITY           SKY/WX    TMP DP  RH WIND       PRES   REMARKS
Jones Beach      N/A     37 N/A N/A SW8G15      N/A  WCI  31
Matinecock PT    N/A     36 N/A N/A S2          N/A
Farmingdale    CLOUDY    35  27  72 SW9       30.49F WCI  28
MacArthur/ISP  CLOUDY    35  29  78 S7        30.48F WCI  29
Shirley        MOCLDY    33  28  81 S7        30.51S WCI  27
Westhampton    PTCLDY    23  16  74 CALM      30.52R
East Hampton   MOCLDY    25  21  84 CALM      30.51S
Montauk          N/A     37  28  70 SW5       30.52S WCI  33
$$

NYZ052-065-067-241200-
HUDSON VALLEY

CITY           SKY/WX    TMP DP  RH WIND       PRES   REMARKS
White Plains   CLOUDY    33  23  66 CALM      30.45F
Newburgh       MOCLDY    30  14  51 CALM      30.44S
Montgomery     CLOUDY    29  18  63 CALM      30.42S
Poughkeepsie   CLOUDY    30  19  63 CALM      30.43F
Albany         CLOUDY    33   8  35 VRB7      30.37F WCI  27
$$

NJZ001-105-106-008-010-013-015-019>022-104-241200-
NEW JERSEY

CITY           SKY/WX    TMP DP  RH WIND       PRES   REMARKS
Newark/Liberty CLOUDY    35  24  64 S13       30.48F WCI  26
Teterboro      CLOUDY    35  22  58 SW8G20    30.47F WCI  29
Caldwell       CLOUDY    33  18  53 S3        30.47F
Somerville     CLOUDY    27  21  78 CALM      30.45F
Linden         CLOUDY    34  23  65 CALM      30.49S
Sussex         CLOUDY    28  19  69 CALM      30.42F
Andover          N/A     32  16  51 CALM      30.42S
Trenton        CLOUDY    31  25  78 S9        30.46F WCI  23
Millville      CLOUDY    27  25  92 S3        30.50F
Atlantic City  CLOUDY    34  29  82 S6        30.51F WCI  29
Wrightstown    CLOUDY    28  24  85 S7        30.46F WCI  21
Toms River     MOCLDY    25  23  92 S3        30.51F
Belmar         CLOUDY    31  27  85 S7        30.49F WCI  24
$$

PAZ047>061-062-071-241200-
EASTERN PENNSYLVANIA

CITY           SKY/WX    TMP DP  RH WIND       PRES   REMARKS
Philadelphia   CLOUDY    33  24  69 S7        30.49F WCI  27
Allentown      CLOUDY    33  14  45 CALM      30.42F
Scranton       CLOUDY    35  15  44 VRB6      30.33F WCI  30
$$

CTZ002-004>006-009-010-012-RIZ004-006-007-MAZ004-011-015-241200-
SOUTHERN NEW ENGLAND
 IN CT

CITY           SKY/WX    TMP DP  RH WIND       PRES   REMARKS
Bradley INTL   CLOUDY    29  18  63 SE5       30.45F WCI  24
Hartford       CLOUDY    31  21  66 CALM      30.48S
Danbury        MOCLDY    32  21  64 SE5       30.46S WCI  27
Wtrbury/Oxford MOCLDY    32  21  64 SW5       30.44F WCI  27
Bridgeport     CLOUDY    37  26  64 SW9       30.48F WCI  30
Meriden        CLOUDY    30  21  69 CALM      30.48S
New Haven      CLOUDY    36  28  73 SW9       30.48F WCI  29
Chester        NOT AVBL
Groton         CLOUDY    37  28  70 SW10      30.50S WCI  30
Wilimantic     CLOUDY    28  16  60 CALM      30.51R

 IN RI

CITY           SKY/WX    TMP DP  RH WIND       PRES   REMARKS
Providence     CLOUDY    28  14  55 CALM      30.51R
Block Island   CLOUDY    37  26  64 S8        30.51S WCI  31
Westerly       CLOUDY    26  19  74 CALM      30.51S
 IN MA

CITY           SKY/WX    TMP DP  RH WIND       PRES   REMARKS
Boston         CLOUDY    30  12  47 SW8       30.51R WCI  22
Worcester      CLOUDY    25   5  42 SW7       30.43R WCI  17
Westfield      CLOUDY    27  13  55 S5        30.44F WCI  22
Provincetown   CLOUDY    25  18  74 SE6       30.52R WCI  18
Nantucket      CLOUDY    27  19  72 CALM      30.54R
$$

ANZ330-335-338-340-345-350-353-355-241200-
COASTAL MARINE OBSERVATIONS


STATION/POSITION TIME  SKY/WX   TEMP    WIND        PRES    VSBY  WAVE
                                AIR SEA DIR/SP/G                  HT/PER
                 (UTC)          (F)     (DEG/KT/KT) (MB)    (MI)  (FT/S)
NY HARB ENTRANCE 0950            39 41  210/ 14/ 16 1032.6          2/ 4
20 S FIRE ISLAND 1050            40 40  210/ 16/ 17 1032.8          3/ 4
GREAT SOUTH BAY  NOT AVBL
23 SSW MONTAUK P 0950            40 42              1033.3          2/ 4
15 E BARNEGAT LI 1030               42                N/A           3/ 4
HUDSON CANYON    0950            41 44  200/ 10/ 14 1034.3          2/ 4
KINGS POINT      1042            36 38              1032.0
EXECUTION ROCKS  NOT AVBL
CENTRAL LI SOUND 1030            38     220/ 10/ 14   N/A           1/ 2
EASTERN LI SOUND NOT AVBL
ROBBINS REEF     1042            36     220/ 13/ 16 1032.4
$$


>>>>>>>>>>>>>>>>>>>>>>>>>>>> KEY <<<<<<<<<<<<<<<<<<<<<<<<<<<
>                                                          <
>     SKY/WX - Sky Condition/Present Weather               <
>     TMP    - Temperature in Fahrenheit                   <
>     DP     - Dew Point in Fahrenheit                     <
>     RH     - Relative Humidity in Percent                <
>     WIND   - Direction (from) and Speed in MPH           <
>     PRES   - Mean Sea Level Pressure (inches of Hg)      <
>     WCI    - Wind Chill Index                            <
>     VSB    - VISIBILITY IN MILES                         <
>     HX     - HEAT INDEX                                  <
>     TC     - TEMPERATURE IN CELSIUS                      <
>     VRB    - VARIABLE WIND DIRECTION                     <
>                                                          <
>>>>>>>>>>>>>>>>>>>>>>>>>>>> KEY <<<<<<<<<<<<<<<<<<<<<<<<<<<




USA.gov is the U.S. government's official web portal to all federal, state and local government web resources and services.